Location: Unspecified
(0.0000°N, 0.0000°E)
Time: 20:39:45
(UTC+00:00)

ARIANE 2 DEB - Pass Details

Date: 07 March 2026
Orbit: 701 x 35694 km, 8.0° (Epoch: 21 April)

Event Time Altitude Azimuth Distance (km) Brightness Sun altitude
Rises 19:54:58 0° 279° (W) 12,483 ? -25.9°
Reaches altitude 10° 20:02:39 10° 279° (W) 13,421 ? -27.8°
Enters shadow 04:14:24 - 265° (W) 25,757 ? -29.0°
Exits shadow 05:09:00 12° 261° (W) 14,488 ? -15.4°
Maximum altitude 05:46:29 64° 182° (S) 2,007 ? -6.1°
Drops below altitude 10° 05:52:17 10° 100° (E) 2,752 ? -4.6°
Sets 05:53:52 0° 95° (E) 3,402 ? -4.2°
